Location: Newark
(48.2308°N, 120.8549°W)
Time: 13:52:01
(UTC+00:00)

Transit 2A Rocket - Pass Details

Date: 28 May 2020
Orbit: 584 x 919 km, 66.7° (Epoch: 07 July)

Event Time Altitude Azimuth Distance (km) Brightness Sun altitude
Rises 09:19:10 0° 266° (W) 3,172 - -18.0°
Exits shadow 09:19:19 - 266° (W) 3,120 7.9 -18.0°
Reaches altitude 10° 09:22:02 10° 282° (WNW) 2,315 7.4 -17.9°
Maximum altitude 09:26:02 21° 331° (NNW) 1,755 7.3 -17.6°
Drops below altitude 10° 09:30:19 10° 19° (NNE) 2,485 9.0 -17.4°
Sets 09:33:32 0° 35° (NE) 3,476 10.0 -17.2°
